Temperature
13 13 13 13 13 13 14 14 14 14 14 14 14 14 14 15 15 15 15 15 15 14 14 14 14 14 14 14 14 14 15 15 15 15 14 14 14 14 15 15 15 14 14
13 13 13 13 13 13 13 13 14 14 14 14 14 14 14 14 14 14 14 14 14 14 14 14 14 14 14 14 14 14 14 14 14 14 14 14 14 14 14 14 14 14 14
13 12 12 12 12 13 13 13 13 13 13 13 13 14 14 14 14 14 14 14 14 14 14 14 14 14 14 14 14 14 14 14 14 14 14 14 14 14 14 14 14 14 14
12 12 12 12 12 12 13 13 13 13 13 13 13 13 13 13 13 13 14 14 14 14 14 14 14 14 14 13 13 13 13 14 14 14 14 14 14 14 14 14 14 14 14
12 12 12 12 12 12 12 12 13 13 13 13 13 13 13 13 13 13 13 13 14 14 14 14 14 14 13 13 13 13 13 13 13 13 13 14 14 14 14 14 14 14 13
12 12 12 11 11 12 12 12 12 12 12 12 13 13 13 13 13 13 13 13 13 13 13 14 14 13 13 13 13 13 13 13 13 13 13 13 13 13 13 14 14 13 13
12 11 11 11 11 11 12 12 12 12 12 12 12 12 13 13 13 13 13 13 13 13 13 13 13 13 13 13 13 13 13 13 13 13 13 13 13 13 13 13 13 13 13
11 11 11 11 11 11 11 11 12 12 12 12 12 12 12 13 13 13 13 13 13 13 13 13 13 13 13 13 12 12 12 12 12 12 12 13 13 13 13 13 13 13 13
11 11 11 11 11 11 11 11 11 11 11 12 12 12 12 12 12 12 12 12 12 12 12 12 12 12 12 12 12 12 12 12 12 12 12 12 12 12 13 13 13 13 13
10 10 10 10 10 10 11 10 11 11 11 11 11 12 12 12 12 12 12 12 12 12 12 12 12 12 12 12 12 12 12 12 12 12 12 12 12 12 12 12 12 12 12
10 10 10 10 10 10 10 10 10 10 11 11 11 11 11 11 12 11 11 12 12 12 12 12 12 12 12 12 12 12 12 12 12 12 12 12 12 12 12 12 12 12 12
9 9 9 9 10 10 10 10 10 10 10 10 10 11 11 11 11 11 11 11 11 11 11 11 11 11 11 11 11 11 11 11 11 11 11 11 11 11 11 11 11 11 11
9 9 9 9 9 9 9 10 10 10 10 10 10 10 10 10 10 10 10 11 11 11 11 11 11 11 11 11 11 11 11 11 11 11 11 11 11 11 11 11 11 11 11
9 9 9 9 9 9 9 9 9 9 10 10 10 10 10 10 10 10 10 10 10 10 10 10 10 10 10 10 10 11 11 10 10 10 10 10 10 10 11 11 11 11 11
9 9 9 9 9 9 9 9 9 9 9 9 10 10 10 10 10 10 10 10 10 10 10 10 10 10 10 10 10 10 10 10 10 10 10 10 10 10 10 10 10 10 10
9 8 8 8 8 8 8 8 9 9 9 9 9 9 9 9 9 9 9 9 10 9 9 9 9 9 9 9 9 9 10 10 10 10 10 10 10 10 10 10 10 10 10
8 8 8 8 8 8 8 8 8 8 8 8 8 9 9 9 9 9 9 9 9 9 9 9 9 9 9 9 9 9 9 9 9 9 9 9 9 9 9 9 9 9 9
8 8 7 7 7 7 8 8 7 7 8 8 8 8 8 8 8 8 9 9 9 8 8 9 8 8 8 8 8 8 9 9 9 9 9 9 9 9 9 9 9 9 9
8 7 7 7 7 7 7 7 7 7 7 7 7 7 8 8 8 8 8 8 8 8 8 8 8 8 8 8 8 8 8 8 8 8 8 8 8 8 8 8 8 8 8
7 7 7 7 7 7 6 6 6 7 7 7 7 7 7 7 7 7 7 7 7 7 7 7 7 7 7 7 7 7 7 7 7 8 8 8 8 8 8 8 8 8 8
6 6 6 6 6 6 6 6 6 6 6 6 6 6 6 7 7 7 7 7 7 7 7 7 7 7 7 6 7 6 7 7 7 7 7 7 7 7 7 7 7 7 7
6 5 5 6 5 6 6 6 6 6 6 6 6 6 6 6 6 6 6 6 6 6 6 6 6 6 6 6 6 6 5 6 6 6 6 6 7 7 7 7 7 7 7
5 5 5 5 5 5 5 5 5 5 5 5 5 5 5 5 5 6 6 6 6 6 6 6 6 6 6 5 5 5 5 5 5 5 6 6 6 6 6 6 6 6 6
4 4 4 4 4 4 4 4 5 5 5 5 5 5 5 5 5 5 5 5 5 5 5 5 5 5 5 5 5 5 5 5 5 4 5 5 5 6 6 6 6 6 6
4 4 4 4 4 4 4 4 4 4 4 4 4 4 4 4 4 4 4 4 4 4 5 5 5 4 4 4 5 5 4 4 4 4 4 4 5 5 5 5 5 5 5
3 3 3 3 3 3 3 3 3 3 3 3 3 3 4 4 4 4 4 4 4 4 4 4 4 4 4 4 4 4 4 4 4 4 4 4 4 4 4 4 5 5 5
Wind_Speed
3 3 5 7 10 11 11 12 12 12 12 12 13 13 13 13 13 13 13 13 14 14 14 15 16 17 17 17 17 17 17 17 17 17 17 16 17 17 17 16 15 14 16
4 5 7 8 10 11 11 12 12 12 12 12 13 13 12 12 12 12 13 13 13 14 14 15 15 16 16 16 16 16 17 17 17 17 17 16 16 16 16 16 15 14 16
6 6 8 9 10 11 11 11 11 11 11 12 12 12 12 12 12 12 13 13 13 13 14 15 15 15 15 15 15 16 16 16 16 16 15 14 14 16 16 16 16 15 15
7 6 7 10 11 11 11 11 11 10 10 11 12 11 11 12 12 12 12 13 13 13 14 14 14 14 14 14 14 14 15 15 14 14 12 12 12 14 15 15 15 15 15
7 6 8 10 11 11 11 11 11 10 10 10 11 11 11 12 12 12 12 12 13 13 14 14 13 13 13 13 13 14 14 15 14 13 12 11 11 13 14 15 15 15 15
5 6 8 10 10 10 10 10 10 10 10 10 10 11 11 11 11 11 11 11 12 13 13 13 12 12 12 12 13 13 14 14 13 12 11 11 10 12 13 14 14 14 15
5 6 8 10 10 10 10 10 9 9 10 10 10 10 10 10 11 10 10 11 12 12 12 12 11 11 11 12 12 13 14 14 12 12 11 10 10 12 12 12 13 13 14
6 6 7 9 9 9 9 9 9 9 9 9 10 10 10 10 10 10 9 10 11 11 11 11 10 10 11 12 12 13 13 13 11 10 10 9 10 11 12 12 12 12 12
6 6 6 7 8 9 9 9 8 9 9 9 9 9 9 9 9 9 9 9 10 10 10 10 10 10 10 11 12 13 13 13 11 9 8 8 10 10 11 11 10 10 11
5 5 5 5 6 7 8 9 9 9 9 9 9 9 9 9 9 9 9 9 9 10 10 10 9 9 10 10 11 12 13 12 11 9 8 8 9 10 10 10 10 10 10
4 3 4 5 5 6 7 8 9 9 9 9 8 9 9 8 9 8 8 9 9 9 9 8 8 8 9 10 10 11 11 10 10 8 7 8 9 10 10 10 10 10 10
4 3 3 4 4 5 6 7 7 7 8 8 8 8 8 8 7 7 8 9 9 9 8 8 7 8 8 8 9 10 9 10 9 7 7 8 9 9 9 9 10 9 10
5 4 3 3 4 5 5 6 6 6 7 7 7 7 8 8 7 7 7 7 8 8 8 7 7 7 8 7 7 8 8 9 8 7 7 7 8 8 8 8 8 8 8
5 4 3 4 4 4 5 5 5 5 5 5 6 7 7 5 5 5 5 5 6 6 6 6 5 6 7 7 7 8 8 7 7 7 6 7 7 7 7 7 7 7 7
4 4 4 4 4 4 5 4 5 4 5 6 6 7 7 5 4 4 4 4 4 5 4 4 4 5 5 6 6 7 6 6 7 7 7 7 7 7 7 7 7 6 7
5 5 4 4 4 4 4 4 4 5 5 6 6 6 7 6 5 4 3 3 3 4 4 4 4 4 4 5 5 5 5 5 6 6 6 6 7 6 6 6 6 5 5
5 5 5 5 5 5 4 4 4 5 5 5 5 6 6 6 5 4 3 3 3 3 4 4 4 4 4 4 4 4 4 4 5 5 5 5 5 5 5 4 4 4 4
4 5 5 4 5 5 4 4 4 5 5 4 5 5 5 6 5 4 3 2 3 4 4 3 3 2 2 2 2 2 3 3 4 4 4 4 4 4 4 4 4 4 3
3 4 5 5 5 5 4 4 5 4 4 4 4 4 4 5 5 5 3 3 3 3 2 2 2 2 2 2 2 1 2 2 2 3 4 3 4 3 3 3 3 3 3
2 2 3 4 4 4 4 4 3 3 3 3 3 3 3 4 5 5 4 3 4 3 2 2 2 2 2 2 2 2 2 1 2 2 2 3 3 3 3 3 3 3 2
3 2 2 3 3 4 3 3 3 2 2 1 2 3 3 3 4 4 3 3 3 2 2 2 2 2 1 1 2 2 2 2 1 1 1 2 2 2 3 3 3 3 3
2 1 1 2 2 3 3 3 2 3 2 1 1 2 2 2 3 3 3 2 2 2 2 2 2 1 1 1 1 2 0 2 2 1 1 0 1 2 2 2 2 2 2
2 1 1 1 1 2 3 3 2 2 2 1 1 1 1 2 3 3 3 3 2 2 3 2 3 3 2 1 0 2 2 2 1 2 1 1 1 1 2 1 1 1 1
0 1 1 1 2 2 3 3 4 3 2 2 2 2 1 2 2 3 3 3 2 2 2 2 1 1 3 2 1 1 1 2 2 1 2 2 2 2 2 2 2 1 1
1 1 1 2 2 2 2 2 3 2 2 1 1 2 1 1 1 2 2 2 2 1 2 2 1 2 2 3 2 1 0 0 1 2 3 3 3 2 2 2 2 2 2
2 2 2 2 1 1 2 1 2 2 2 2 2 2 2 1 1 1 2 2 2 2 2 2 2 2 3 3 2 2 2 2 2 2 3 3 3 3 3 2 2 3 4
Wind_Direction
198 207 163 131 117 109 104 99 96 92 88 87 87 88 88 87 86 85 85 84 82 80 79 79 79 78 77 77 76 76 76 75 74 72 72 74 75 75 75 74 75 78 82
165 174 154 134 123 113 106 101 97 97 94 91 88 87 89 89 88 88 87 85 83 80 79 79 79 79 76 76 75 76 77 77 75 70 68 69 75 76 75 73 75 81 83
140 151 147 134 127 118 111 105 100 100 100 97 93 91 89 92 91 90 89 86 83 82 81 80 79 79 77 75 74 75 77 77 75 70 66 65 73 76 76 75 75 79 82
135 136 142 133 129 122 117 112 108 105 103 102 99 95 92 93 93 90 89 87 85 85 84 82 80 79 78 75 74 74 76 77 74 69 64 62 71 76 78 77 76 77 80
122 127 136 131 129 125 119 115 111 109 106 104 102 98 95 95 94 92 91 91 89 88 86 84 82 81 78 75 75 75 77 75 72 68 64 63 71 77 79 78 77 77 78
108 125 137 134 130 126 123 118 115 112 110 107 103 101 99 98 95 94 91 94 92 91 89 85 82 82 78 75 75 76 77 75 72 68 65 68 74 79 79 79 80 79 77
116 124 140 138 132 128 125 122 119 115 111 110 106 103 101 102 98 95 94 98 96 95 92 87 84 81 78 75 76 78 76 75 72 69 65 69 79 83 82 81 82 82 79
118 116 131 135 134 130 126 123 121 117 113 110 107 105 104 105 102 98 98 102 101 100 96 91 86 82 78 78 77 77 75 73 71 69 66 71 81 83 82 83 84 84 82
104 103 105 120 128 132 129 126 124 121 115 110 106 104 102 105 105 102 100 99 102 99 95 94 89 84 80 79 80 79 75 72 67 66 67 74 81 82 83 83 85 88 87
94 92 95 105 116 123 127 128 124 119 114 109 106 103 101 104 106 102 97 97 100 97 93 93 90 83 80 79 82 80 74 70 64 63 67 81 85 85 85 83 84 87 88
114 105 102 101 108 115 123 127 124 120 115 112 108 106 98 92 94 96 97 98 99 98 94 92 89 82 76 77 80 75 71 67 63 61 70 83 84 85 86 84 83 84 86
160 154 125 116 113 119 123 120 115 114 113 111 110 108 101 94 91 94 100 99 95 94 92 87 81 73 70 71 75 74 70 64 62 60 70 83 84 83 84 85 83 82 86
168 166 155 136 129 125 121 121 116 116 115 115 115 112 108 100 92 89 90 88 86 83 78 74 66 62 66 70 73 76 75 66 62 59 65 77 82 85 85 85 83 84 88
165 170 161 144 133 134 135 133 132 128 123 120 122 119 115 104 95 91 91 93 91 87 81 76 70 66 67 71 77 79 75 70 65 60 61 71 74 82 84 85 85 85 87
172 172 166 154 143 140 137 137 139 137 137 137 129 128 125 116 112 107 103 106 102 99 92 82 78 71 67 70 76 83 81 76 72 67 65 67 70 76 79 81 83 86 87
185 181 168 161 145 140 141 140 140 141 143 138 132 135 135 134 131 119 109 104 101 106 110 107 98 83 72 76 76 83 88 84 76 69 67 67 65 67 70 75 76 81 89
191 180 175 165 141 139 143 143 140 142 141 135 139 143 141 137 135 124 114 107 113 116 113 104 93 82 74 72 69 80 88 86 82 76 71 68 63 56 56 66 71 70 78
183 178 177 164 149 148 142 132 130 131 129 129 138 145 145 139 137 127 115 105 114 118 111 102 96 92 74 73 67 55 75 85 83 81 77 72 68 62 54 56 62 62 60
176 175 175 160 157 154 141 128 120 120 120 123 129 135 141 138 141 132 122 118 114 109 104 112 98 110 107 95 80 59 47 66 73 81 75 71 73 69 63 54 52 52 53
119 137 152 152 152 139 129 120 112 104 97 107 117 131 135 133 136 132 126 124 121 99 89 91 110 92 116 122 90 53 16 29 56 64 70 72 67 65 60 52 49 41 40
68 82 113 134 145 141 145 152 156 162 159 130 115 130 133 133 139 134 124 125 123 122 129 126 116 104 79 107 92 47 10 11 14 13 53 66 57 60 59 44 42 44 25
85 80 103 120 144 151 156 158 167 162 169 162 122 124 145 153 154 148 129 129 136 131 123 128 116 125 148 135 126 120 40 339 332 314 321 346 27 49 37 21 26 23 13
74 90 119 119 133 133 123 118 109 90 84 104 157 172 185 189 171 154 145 141 147 149 163 163 165 151 184 235 178 158 159 214 296 315 299 284 318 9 348 346 328 302 339
57 60 70 82 88 97 116 135 147 158 179 197 193 205 212 196 174 165 157 156 158 155 168 180 177 177 171 199 269 291 185 157 168 281 312 319 319 292 297 301 285 262 245
43 56 69 77 72 78 92 135 157 169 185 168 169 180 194 217 198 181 174 165 166 174 179 178 182 191 183 190 200 211 244 354 186 208 260 293 315 295 288 276 254 251 253
30 46 54 75 67 67 84 112 146 175 177 165 177 194 205 220 230 212 202 193 190 194 198 198 197 201 202 196 199 197 191 196 205 205 234 257 281 294 295 277 244 254 250
Height
1533 1534 1536 1537 1538 1538 1539 1539 1540 1540 1541 1541 1541 1542 1542 1542 1543 1543 1543 1543 1544 1544 1545 1545 1545 1545 1545 1545 1545 1545 1545 1545 1545 1545 1545 1545 1545 1545 1545 1545 1544 1544 1544
1532 1533 1535 1536 1537 1538 1539 1539 1540 1540 1541 1541 1542 1542 1542 1543 1543 1543 1544 1544 1544 1545 1545 1545 1546 1546 1546 1546 1546 1546 1546 1547 1547 1547 1546 1546 1546 1546 1546 1546 1546 1546 1546
1531 1533 1534 1536 1537 1538 1538 1539 1540 1540 1541 1541 1542 1543 1543 1543 1544 1544 1544 1545 1545 1545 1546 1546 1546 1546 1547 1547 1547 1548 1548 1548 1548 1548 1548 1548 1548 1548 1548 1548 1548 1548 1548
1531 1532 1533 1535 1536 1537 1538 1539 1539 1540 1541 1541 1542 1542 1543 1544 1544 1544 1545 1545 1545 1546 1546 1546 1547 1547 1548 1548 1548 1548 1549 1549 1549 1549 1550 1550 1550 1550 1549 1549 1549 1549 1549
1530 1531 1533 1535 1536 1537 1537 1538 1539 1540 1540 1541 1542 1542 1543 1544 1544 1545 1545 1545 1546 1546 1546 1547 1547 1548 1548 1549 1549 1549 1550 1550 1550 1550 1551 1551 1551 1551 1551 1551 1551 1551 1551
1529 1531 1532 1534 1535 1536 1537 1538 1539 1539 1540 1541 1541 1542 1543 1543 1544 1545 1545 1546 1546 1547 1547 1547 1548 1548 1549 1549 1549 1550 1550 1551 1551 1551 1552 1552 1552 1552 1552 1552 1552 1552 1552
1529 1530 1532 1533 1534 1535 1536 1537 1538 1539 1540 1540 1541 1542 1543 1543 1544 1545 1545 1546 1546 1547 1547 1547 1548 1549 1549 1549 1550 1550 1551 1551 1552 1552 1552 1553 1553 1553 1553 1553 1553 1553 1553
1528 1529 1531 1532 1534 1535 1535 1536 1537 1538 1539 1540 1540 1541 1542 1543 1544 1544 1545 1546 1546 1547 1547 1548 1548 1549 1549 1549 1550 1550 1551 1552 1552 1552 1553 1553 1554 1554 1554 1554 1554 1554 1554
1528 1529 1530 1531 1533 1534 1535 1536 1537 1538 1539 1539 1540 1541 1541 1542 1543 1544 1545 1545 1546 1546 1547 1547 1548 1548 1549 1549 1550 1551 1551 1552 1552 1553 1553 1554 1554 1554 1555 1555 1555 1555 1555
1526 1528 1529 1530 1531 1533 1534 1535 1536 1536 1537 1538 1539 1540 1541 1542 1543 1543 1544 1545 1546 1546 1547 1547 1548 1548 1548 1549 1550 1551 1551 1552 1552 1553 1553 1554 1555 1555 1555 1555 1555 1555 1555
1525 1526 1527 1529 1530 1531 1532 1533 1534 1535 1536 1537 1538 1539 1540 1541 1542 1543 1544 1544 1545 1546 1546 1547 1547 1548 1548 1549 1549 1550 1551 1551 1552 1553 1553 1554 1554 1555 1555 1555 1555 1555 1556
1522 1524 1526 1527 1528 1530 1531 1532 1532 1534 1535 1536 1537 1538 1539 1540 1541 1542 1543 1544 1544 1545 1546 1546 1547 1547 1548 1548 1549 1550 1550 1551 1552 1552 1553 1554 1554 1554 1555 1555 1555 1555 1556
1521 1522 1523 1525 1526 1528 1529 1530 1531 1532 1533 1535 1536 1537 1538 1539 1540 1541 1542 1542 1543 1544 1544 1545 1546 1546 1547 1548 1548 1549 1550 1551 1551 1552 1552 1553 1554 1554 1554 1555 1555 1555 1556
1519 1520 1521 1523 1524 1525 1527 1528 1529 1530 1531 1533 1534 1535 1537 1538 1538 1539 1540 1541 1542 1543 1543 1544 1545 1545 1546 1547 1548 1548 1549 1550 1551 1551 1551 1552 1553 1553 1554 1554 1554 1555 1555
1517 1518 1519 1520 1522 1523 1524 1526 1527 1528 1530 1531 1532 1534 1535 1536 1537 1538 1539 1539 1540 1541 1542 1543 1544 1544 1545 1546 1547 1547 1548 1549 1549 1550 1550 1551 1552 1552 1553 1553 1554 1554 1554
1514 1516 1517 1518 1519 1521 1522 1523 1525 1526 1528 1529 1530 1532 1533 1534 1535 1536 1537 1538 1539 1540 1541 1542 1542 1543 1544 1545 1545 1546 1547 1548 1548 1549 1549 1550 1551 1551 1551 1552 1552 1553 1553
1512 1513 1514 1516 1517 1518 1520 1521 1523 1524 1526 1527 1528 1529 1530 1531 1532 1533 1534 1535 1536 1538 1539 1540 1541 1542 1542 1543 1544 1544 1545 1546 1546 1547 1548 1548 1549 1549 1550 1550 1551 1551 1551
1509 1511 1512 1513 1514 1515 1517 1518 1520 1521 1523 1524 1526 1527 1528 1529 1530 1531 1532 1533 1534 1535 1536 1537 1538 1539 1540 1541 1542 1542 1543 1544 1545 1545 1546 1547 1547 1547 1548 1548 1549 1549 1550
1507 1508 1509 1510 1511 1513 1514 1516 1518 1519 1521 1522 1523 1524 1525 1527 1528 1529 1530 1531 1531 1533 1534 1535 1536 1537 1537 1538 1539 1540 1541 1541 1542 1543 1544 1545 1545 1545 1546 1546 1547 1547 1548
1504 1506 1507 1508 1509 1511 1512 1514 1515 1516 1518 1519 1520 1522 1523 1524 1525 1526 1527 1528 1529 1530 1531 1532 1533 1535 1536 1536 1537 1537 1538 1539 1540 1541 1541 1542 1543 1543 1544 1544 1545 1545 1545
1502 1503 1504 1505 1506 1508 1509 1510 1512 1513 1515 1516 1518 1519 1520 1521 1522 1523 1524 1525 1526 1527 1528 1529 1530 1532 1533 1534 1534 1534 1535 1536 1537 1538 1539 1539 1540 1541 1541 1542 1542 1543 1543
1500 1501 1502 1502 1504 1505 1507 1508 1509 1511 1512 1513 1514 1516 1517 1519 1520 1520 1521 1522 1523 1524 1525 1526 1528 1529 1530 1531 1532 1531 1532 1534 1534 1535 1536 1536 1537 1538 1538 1539 1539 1540 1540
1498 1499 1500 1500 1501 1503 1504 1506 1507 1507 1509 1510 1511 1513 1514 1515 1517 1518 1518 1519 1520 1521 1522 1523 1525 1526 1527 1528 1529 1530 1530 1530 1530 1532 1532 1533 1534 1535 1535 1536 1536 1537 1537
1496 1497 1498 1499 1500 1500 1502 1503 1504 1504 1505 1506 1508 1509 1511 1512 1513 1514 1515 1516 1517 1518 1519 1520 1522 1523 1524 1524 1526 1527 1528 1528 1529 1528 1529 1530 1530 1531 1532 1533 1533 1533 1534
1495 1495 1496 1497 1498 1499 1500 1501 1501 1502 1503 1504 1505 1506 1508 1509 1510 1511 1512 1513 1514 1515 1516 1517 1518 1519 1520 1521 1522 1523 1524 1525 1525 1526 1525 1526 1527 1528 1528 1529 1529 1530 1530
1493 1494 1495 1495 1496 1497 1497 1498 1499 1500 1500 1501 1502 1503 1504 1505 1506 1507 1508 1510 1510 1511 1512 1513 1514 1515 1516 1517 1518 1519 1520 1521 1521 1522 1521 1521 1522 1523 1524 1525 1525 1526 1527